When you browse on this site, cookies collect data to enhance your experience and personalize the content and advertising you see.
Visit our Privacy Policy to learn more. By continuing to use the site, you agree to this use of cookies and data.
  • In Austria
  • List of Countries
  • For 7 days
  • Water Temperature
  • Weather Map
  • News
  • Weather Widgets
  • user-avatar
    Login

    Hourly Weather Santander de Quilichao

    Today, 26 January, Sunday

    Time Temperature Precipitation Wind Pressure Humidity
    00:00 +20°C° 0.5 mm 0 mps 672 mmHg 95%
    01:00 +20°C° 0.5 mm 0 mps 672 mmHg 95%
    02:00 +20°C° 0.5 mm 0 mps 672 mmHg 95%
    03:00 +20°C° 0.5 mm 0 mps 671 mmHg 95%
    04:00 +20°C° 0.5 mm 0 mps 671 mmHg 96%
    05:00 +20°C° 0.3 mm 0 mps 671 mmHg 95%
    06:00 +20°C° 0.3 mm 0 mps 672 mmHg 95%
    07:00 +20°C° 0.3 mm 0 mps 672 mmHg 95%
    08:00 +21°C° 0.3 mm 0 mps 673 mmHg 91%
    09:00 +23°C° 0.3 mm 0 mps 673 mmHg 87%
    10:00 +24°C° 0.3 mm 0 mps 674 mmHg 83%
    11:00 +27°C° 0.9 mm 1 mps 673 mmHg 81%
    12:00 +28°C° 0.9 mm 1 mps 673 mmHg 79%
    13:00 +28°C° 0.9 mm 1 mps 672 mmHg 77%
    14:00 +28°C° 1.7 mm 1 mps 672 mmHg 79%
    15:00 +27°C° 1.7 mm 1 mps 671 mmHg 81%
    16:00 +27°C° 1.7 mm 1 mps 671 mmHg 82%
    17:00 +25°C° 1.2 mm 1 mps 671 mmHg 86%
    18:00 +22°C° 1.2 mm 0 mps 671 mmHg 90%
    19:00 +21°C° 1.2 mm 0 mps 671 mmHg 94%
    20:00 +21°C° 0.7 mm 0 mps 672 mmHg 94%
    21:00 +20°C° 0.7 mm 0 mps 672 mmHg 94%
    22:00 +20°C° 0.7 mm 0 mps 673 mmHg 95%
    23:00 +20°C° 0.5 mm 0 mps 672 mmHg 95%

    Tomorrow, 27 January, Monday

    Time Temperature Precipitation Wind Pressure Humidity
    00:00 +20°C° 0.5 mm 0 mps 672 mmHg 95%
    01:00 +20°C° 0.5 mm 0 mps 672 mmHg 96%
    02:00 +20°C° 0.8 mm 0 mps 671 mmHg 96%
    03:00 +20°C° 0.8 mm 0 mps 671 mmHg 96%
    04:00 +20°C° 0.8 mm 0 mps 671 mmHg 97%
    05:00 +20°C° 0.7 mm 0 mps 671 mmHg 97%
    06:00 +20°C° 0.7 mm 0 mps 672 mmHg 96%
    07:00 +20°C° 0.7 mm 0 mps 672 mmHg 96%
    08:00 +21°C° 0.6 mm 0 mps 673 mmHg 94%
    09:00 +22°C° 0.6 mm 0 mps 673 mmHg 91%
    10:00 +24°C° 0.6 mm 1 mps 674 mmHg 89%
    11:00 +25°C° 0.7 mm 1 mps 674 mmHg 86%
    12:00 +26°C° 0.7 mm 1 mps 673 mmHg 83%
    13:00 +27°C° 0.7 mm 1 mps 673 mmHg 79%
    14:00 +26°C° 1.4 mm 1 mps 672 mmHg 81%
    15:00 +26°C° 1.4 mm 1 mps 672 mmHg 83%
    16:00 +26°C° 1.4 mm 1 mps 671 mmHg 85%
    17:00 +25°C° 1.3 mm 1 mps 671 mmHg 88%
    18:00 +24°C° 1.3 mm 1 mps 671 mmHg 91%
    19:00 +21°C° 1.3 mm 0 mps 672 mmHg 94%
    20:00 +21°C° 0.6 mm 0 mps 672 mmHg 94%
    21:00 +22°C° 0.6 mm 1 mps 672 mmHg 94%
    22:00 +22°C° 0.6 mm 1 mps 673 mmHg 93%
    23:00 +20°C° 0.3 mm 0 mps 672 mmHg 94%

    Day after tomorrow, 28 January, Tuesday

    Time Temperature Precipitation Wind Pressure Humidity
    00:00 +20°C° 0.3 mm 0 mps 672 mmHg 94%
    01:00 +20°C° 0.3 mm 0 mps 672 mmHg 94%
    02:00 +20°C° 0.1 mm 0 mps 672 mmHg 94%
    03:00 +20°C° 0.1 mm 0 mps 671 mmHg 94%
    04:00 +19°C° 0.1 mm 0 mps 671 mmHg 94%
    05:00 +20°C° 0 mm 0 mps 671 mmHg 94%
    06:00 +20°C° 0 mm 0 mps 672 mmHg 93%
    07:00 +20°C° 0 mm 0 mps 672 mmHg 93%
    08:00 +22°C° 0 mm 0 mps 673 mmHg 86%
    09:00 +24°C° 0 mm 0 mps 673 mmHg 80%
    10:00 +27°C° 0 mm 1 mps 674 mmHg 73%
    11:00 +28°C° 0.2 mm 1 mps 673 mmHg 71%
    12:00 +29°C° 0.2 mm 1 mps 673 mmHg 69%
    13:00 +29°C° 0.2 mm 1 mps 672 mmHg 67%
    14:00 +29°C° 0.7 mm 1 mps 671 mmHg 71%
    15:00 +28°C° 0.7 mm 1 mps 671 mmHg 74%
    16:00 +27°C° 0.7 mm 1 mps 670 mmHg 78%
    17:00 +26°C° 0.9 mm 1 mps 670 mmHg 83%
    18:00 +22°C° 0.9 mm 0 mps 670 mmHg 88%
    19:00 +21°C° 0.9 mm 0 mps 671 mmHg 93%
    20:00 +21°C° 0.4 mm 0 mps 671 mmHg 93%
    21:00 +20°C° 0.4 mm 0 mps 671 mmHg 94%
    22:00 +20°C° 0.4 mm 0 mps 672 mmHg 94%
    23:00 +20°C° 0.2 mm 0 mps 672 mmHg 94%

    29 January, Wednesday

    Time Temperature Precipitation Wind Pressure Humidity
    00:00 +20°C° 0.2 mm 0 mps 671 mmHg 95%
    01:00 +20°C° 0.2 mm 0 mps 671 mmHg 95%
    02:00 +20°C° 0.2 mm 0 mps 671 mmHg 95%
    03:00 +20°C° 0.2 mm 0 mps 671 mmHg 95%
    04:00 +19°C° 0.2 mm 0 mps 671 mmHg 96%
    05:00 +20°C° 0.1 mm 0 mps 671 mmHg 95%
    06:00 +20°C° 0.1 mm 0 mps 672 mmHg 94%
    07:00 +20°C° 0.1 mm 0 mps 672 mmHg 94%
    08:00 +21°C° 0.1 mm 0 mps 673 mmHg 87%
    09:00 +23°C° 0.1 mm 0 mps 673 mmHg 81%
    10:00 +27°C° 0.1 mm 1 mps 674 mmHg 75%
    11:00 +28°C° 0.4 mm 1 mps 673 mmHg 73%
    12:00 +28°C° 0.4 mm 1 mps 672 mmHg 70%
    13:00 +29°C° 0.4 mm 1 mps 672 mmHg 68%
    14:00 +28°C° 0.9 mm 1 mps 671 mmHg 71%
    15:00 +28°C° 0.9 mm 1 mps 671 mmHg 75%
    16:00 +25°C° 0.9 mm 0 mps 670 mmHg 78%
    17:00 +24°C° 1 mm 0 mps 670 mmHg 83%
    18:00 +22°C° 1 mm 0 mps 670 mmHg 88%
    19:00 +21°C° 1 mm 0 mps 670 mmHg 93%
    20:00 +21°C° 0.5 mm 0 mps 671 mmHg 93%
    21:00 +20°C° 0.5 mm 0 mps 671 mmHg 93%
    22:00 +20°C° 0.5 mm 0 mps 671 mmHg 93%
    23:00 +20°C° 0.1 mm 0 mps 671 mmHg 94%

    30 January, Thursday

    Time Temperature Precipitation Wind Pressure Humidity
    00:00 +19°C° 0.1 mm 0 mps 671 mmHg 94%
    01:00 +19°C° 0.1 mm 0 mps 671 mmHg 94%
    02:00 +19°C° 0.1 mm 0 mps 670 mmHg 94%
    03:00 +19°C° 0.1 mm 0 mps 670 mmHg 94%
    04:00 +19°C° 0.1 mm 0 mps 670 mmHg 94%
    05:00 +19°C° 0 mm 0 mps 670 mmHg 93%
    06:00 +19°C° 0 mm 0 mps 671 mmHg 93%
    07:00 +19°C° 0 mm 0 mps 671 mmHg 92%
    08:00 +21°C° 0 mm 0 mps 672 mmHg 86%
    09:00 +23°C° 0 mm 0 mps 672 mmHg 80%
    10:00 +27°C° 0 mm 1 mps 672 mmHg 73%
    11:00 +28°C° 0.2 mm 1 mps 672 mmHg 70%
    12:00 +29°C° 0.2 mm 1 mps 672 mmHg 67%
    13:00 +29°C° 0.2 mm 1 mps 671 mmHg 64%
    14:00 +29°C° 0.9 mm 1 mps 671 mmHg 68%
    15:00 +28°C° 0.9 mm 1 mps 670 mmHg 72%
    16:00 +28°C° 0.9 mm 1 mps 669 mmHg 75%
    17:00 +26°C° 1.1 mm 1 mps 669 mmHg 81%
    18:00 +25°C° 1.1 mm 1 mps 670 mmHg 86%
    19:00 +23°C° 1.1 mm 1 mps 670 mmHg 92%
    20:00 +23°C° 0.2 mm 1 mps 670 mmHg 92%
    21:00 +22°C° 0.2 mm 1 mps 670 mmHg 92%
    22:00 +22°C° 0.2 mm 1 mps 671 mmHg 92%
    23:00 +22°C° 0 mm 1 mps 671 mmHg 92%

    31 January, Friday

    Time Temperature Precipitation Wind Pressure Humidity
    00:00 +21°C° 0 mm 1 mps 670 mmHg 91%
    01:00 +21°C° 0 mm 1 mps 670 mmHg 91%
    02:00 +21°C° 0 mm 1 mps 670 mmHg 91%
    03:00 +21°C° 0 mm 1 mps 670 mmHg 91%
    04:00 +21°C° 0 mm 1 mps 669 mmHg 91%
    05:00 +21°C° 0 mm 1 mps 670 mmHg 91%
    06:00 +21°C° 0 mm 1 mps 670 mmHg 90%
    07:00 +21°C° 0 mm 1 mps 671 mmHg 90%
    08:00 +23°C° 0 mm 1 mps 671 mmHg 82%
    09:00 +26°C° 0 mm 1 mps 672 mmHg 74%
    10:00 +28°C° 0 mm 1 mps 673 mmHg 66%
    11:00 +29°C° 0.2 mm 1 mps 672 mmHg 64%
    12:00 +30°C° 0.2 mm 1 mps 672 mmHg 62%
    13:00 +30°C° 0.2 mm 2 mps 671 mmHg 60%
    14:00 +29°C° 0.8 mm 1 mps 671 mmHg 65%
    15:00 +29°C° 0.8 mm 1 mps 670 mmHg 70%
    16:00 +28°C° 0.8 mm 1 mps 669 mmHg 75%
    17:00 +26°C° 0.9 mm 1 mps 670 mmHg 81%
    18:00 +25°C° 0.9 mm 1 mps 670 mmHg 86%
    19:00 +23°C° 0.9 mm 1 mps 670 mmHg 92%
    20:00 +23°C° 0.6 mm 1 mps 671 mmHg 92%
    21:00 +22°C° 0.6 mm 1 mps 671 mmHg 92%
    22:00 +22°C° 0.6 mm 1 mps 672 mmHg 92%
    23:00 +21°C° 0.1 mm 1 mps 671 mmHg 92%
    Show more